Time,TemperatureF,DewpointF,PressureIn,WindDirection,WindDirectionDegrees,WindSpeedMPH,WindSpeedGustMPH,Humidity,HourlyPrecipIn,Conditions,Clouds,dailyrainin,SolarRadiationWatts/m^2,SoftwareType,DateUTC
2013-04-09 00:03:00,45.2,27.1,29.59,ESE,111,3.9,5.0,49,0.00,CLR,,0.00,0.0,WeatherDisplay:10.37,2013-04-08 22:03:00,
2013-04-09 00:08:00,45.1,27.0,29.59,ESE,111,2.8,4.0,49,0.00,CLR,,0.00,0.0,WeatherDisplay:10.37,2013-04-08 22:08:00,
2013-04-09 00:13:00,45.1,27.0,29.59,ESE,111,2.1,3.5,49,0.00,CLR,,0.00,0.0,WeatherDisplay:10.37,2013-04-08 22:13:00,
2013-04-09 00:18:00,45.1,27.0,29.58,ESE,111,2.5,4.0,49,0.00,CLR,,0.00,0.0,WeatherDisplay:10.37,2013-04-08 22:18:00,
2013-04-09 00:23:00,45.1,27.0,29.58,ESE,111,1.2,4.0,49,0.00,CLR,,0.00,0.0,WeatherDisplay:10.37,2013-04-08 22:23:00,
2013-04-09 00:28:00,45.1,27.0,29.58,ESE,111,2.0,4.6,49,0.00,CLR,,0.00,0.0,WeatherDisplay:10.37,2013-04-08 22:28:00,
2013-04-09 00:33:00,45.1,26.5,29.58,ESE,111,2.2,5.0,48,0.00,CLR,,0.00,0.0,WeatherDisplay:10.37,2013-04-08 22:33:00,
2013-04-09 00:38:00,45.1,26.5,29.58,ESE,111,2.7,4.6,48,0.00,CLR,,0.00,0.0,WeatherDisplay:10.37,2013-04-08 22:38:00,
2013-04-09 00:43:00,45.1,26.5,29.58,ESE,102,4.1,4.6,48,0.00,CLR,,0.00,0.0,WeatherDisplay:10.37,2013-04-08 22:43:00,
2013-04-09 00:48:00,45.1,26.5,29.58,ESE,102,2.3,4.6,48,0.00,CLR,,0.00,0.0,WeatherDisplay:10.37,2013-04-08 22:48:00,
2013-04-09 00:53:00,45.0,26.4,29.58,ESE,102,1.5,4.6,48,0.00,CLR,,0.00,0.0,WeatherDisplay:10.37,2013-04-08 22:53:00,
2013-04-09 00:58:00,45.0,26.4,29.58,ESE,102,4.4,5.8,48,0.00,CLR,,0.00,0.0,WeatherDisplay:10.37,2013-04-08 22:58:00,
2013-04-09 01:03:00,44.9,26.4,29.58,East,82,4.4,6.9,48,0.00,CLR,,0.00,0.0,WeatherDisplay:10.37,2013-04-08 23:03:00,
2013-04-09 01:08:00,44.9,26.4,29.58,ENE,68,5.0,6.0,48,0.00,CLR,,0.00,0.0,WeatherDisplay:10.37,2013-04-08 23:08:00,
2013-04-09 01:13:00,44.8,26.3,29.58,ENE,68,3.5,5.0,48,0.00,CLR,,0.00,0.0,WeatherDisplay:10.37,2013-04-08 23:13:00,
2013-04-09 01:18:00,44.6,26.1,29.57,ENE,74,3.5,5.8,48,0.00,CLR,,0.00,0.0,WeatherDisplay:10.37,2013-04-08 23:18:00,
2013-04-09 01:23:00,44.4,25.9,29.57,ENE,75,4.5,6.9,48,0.00,CLR,,0.00,0.0,WeatherDisplay:10.37,2013-04-08 23:23:00,
2013-04-09 01:28:00,44.3,25.8,29.57,ENE,76,4.6,4.6,48,0.00,CLR,,0.00,0.0,WeatherDisplay:10.37,2013-04-08 23:28:00,
2013-04-09 01:33:00,44.2,26.2,29.57,ENE,76,3.5,6.9,49,0.00,CLR,,0.00,0.0,WeatherDisplay:10.37,2013-04-08 23:33:00,
2013-04-09 01:38:00,44.1,26.6,29.57,ENE,76,3.8,4.0,50,0.00,CLR,,0.00,0.0,WeatherDisplay:10.37,2013-04-08 23:38:00,
2013-04-09 01:43:00,43.9,26.4,29.57,ENE,76,4.5,6.9,50,0.00,CLR,,0.00,0.0,WeatherDisplay:10.37,2013-04-08 23:43:00,
2013-04-09 01:48:00,43.7,26.7,29.57,ENE,76,3.6,3.6,51,0.00,CLR,,0.00,0.0,WeatherDisplay:10.37,2013-04-08 23:48:00,
2013-04-09 01:53:00,43.6,26.6,29.57,ENE,76,3.6,5.0,51,0.00,CLR,,0.00,0.0,WeatherDisplay:10.37,2013-04-08 23:53:00,
2013-04-09 01:58:00,43.6,27.1,29.57,ENE,76,4.5,5.0,52,0.00,CLR,,0.00,0.0,WeatherDisplay:10.37,2013-04-08 23:58:00,
2013-04-09 02:04:00,43.4,27.4,29.57,ENE,76,3.5,4.6,53,0.00,CLR,,0.00,0.0,WeatherDisplay:10.37,2013-04-09 00:04:00,
2013-04-09 02:09:00,43.3,27.3,29.57,ENE,76,3.4,6.9,53,0.00,CLR,,0.00,0.0,WeatherDisplay:10.37,2013-04-09 00:09:00,
2013-04-09 02:14:00,43.1,27.5,29.56,ENE,76,3.0,4.6,54,0.00,CLR,,0.00,0.0,WeatherDisplay:10.37,2013-04-09 00:14:00,
2013-04-09 02:19:00,43.0,28.3,29.56,ENE,76,3.9,6.9,56,0.00,CLR,,0.00,0.0,WeatherDisplay:10.37,2013-04-09 00:19:00,
2013-04-09 02:24:00,43.0,28.3,29.56,ENE,76,3.2,3.5,56,0.00,CLR,,0.00,0.0,WeatherDisplay:10.37,2013-04-09 00:24:00,
2013-04-09 02:29:00,42.9,28.7,29.56,ENE,76,3.5,4.6,57,0.00,CLR,,0.00,0.0,WeatherDisplay:10.37,2013-04-09 00:29:00,
2013-04-09 02:34:00,42.9,29.1,29.56,ENE,76,2.2,4.6,58,0.00,CLR,,0.00,0.0,WeatherDisplay:10.37,2013-04-09 00:34:00,
2013-04-09 02:39:00,42.8,29.4,29.56,ENE,76,3.9,5.8,59,0.00,CLR,,0.00,0.0,WeatherDisplay:10.37,2013-04-09 00:39:00,
2013-04-09 02:44:00,42.8,30.3,29.55,ENE,76,3.5,5.8,61,0.00,CLR,,0.00,0.0,WeatherDisplay:10.37,2013-04-09 00:44:00,
2013-04-09 02:49:00,42.7,31.0,29.55,ENE,76,3.0,5.8,63,0.00,CLR,,0.00,0.0,WeatherDisplay:10.37,2013-04-09 00:49:00,
2013-04-09 02:54:00,42.7,31.3,29.55,East,81,5.0,6.9,64,0.00,CLR,,0.00,0.0,WeatherDisplay:10.37,2013-04-09 00:54:00,
2013-04-09 03:00:00,42.6,32.0,29.55,East,82,3.0,3.5,66,0.00,CLR,,0.00,0.0,WeatherDisplay:10.37,2013-04-09 01:00:00,
2013-04-09 03:05:00,42.5,32.3,29.55,East,88,5.3,8.1,67,0.00,CLR,,0.00,0.0,WeatherDisplay:10.37,2013-04-09 01:05:00,
2013-04-09 03:10:00,42.4,32.9,29.55,East,95,5.6,6.9,69,0.00,CLR,,0.00,0.0,WeatherDisplay:10.37,2013-04-09 01:10:00,
2013-04-09 03:15:00,42.4,33.3,29.55,East,92,5.5,9.2,70,0.00,CLR,,0.00,0.0,WeatherDisplay:10.37,2013-04-09 01:15:00,
2013-04-09 03:20:00,42.3,33.5,29.55,East,92,5.6,8.1,71,0.00,CLR,,0.00,0.0,WeatherDisplay:10.37,2013-04-09 01:20:00,
2013-04-09 03:25:00,42.2,33.8,29.54,East,93,5.5,9.2,72,0.00,CLR,,0.00,0.0,WeatherDisplay:10.37,2013-04-09 01:25:00,
2013-04-09 03:30:00,42.1,34.0,29.54,East,93,6.1,8.1,73,0.00,CLR,,0.00,0.0,WeatherDisplay:10.37,2013-04-09 01:30:00,
2013-04-09 03:35:00,42.0,34.3,29.54,East,94,6.2,9.2,74,0.00,CLR,,0.00,0.0,WeatherDisplay:10.37,2013-04-09 01:35:00,
2013-04-09 03:40:00,42.0,34.6,29.54,East,90,4.3,6.9,75,0.00,CLR,,0.00,0.0,WeatherDisplay:10.37,2013-04-09 01:40:00,
2013-04-09 03:45:00,41.9,34.9,29.54,East,91,4.4,6.9,76,0.00,CLR,,0.00,0.0,WeatherDisplay:10.37,2013-04-09 01:45:00,
2013-04-09 03:51:00,41.8,35.1,29.54,ESE,107,4.1,9.2,77,0.00,CLR,,0.00,0.0,WeatherDisplay:10.37,2013-04-09 01:51:00,
2013-04-09 03:56:00,41.7,35.0,29.54,ESE,109,5.7,8.1,77,0.00,CLR,,0.00,0.0,WeatherDisplay:10.37,2013-04-09 01:56:00,
2013-04-09 04:02:00,41.6,35.2,29.54,ESE,108,4.6,5.8,78,0.00,CLR,,0.00,0.0,WeatherDisplay:10.37,2013-04-09 02:02:00,
2013-04-09 04:07:00,41.5,35.1,29.54,ESE,108,3.4,5.0,78,0.00,CLR,,0.00,0.0,WeatherDisplay:10.37,2013-04-09 02:07:00,
2013-04-09 04:12:00,41.5,35.5,29.54,ESE,108,3.0,3.5,79,0.00,CLR,,0.00,0.0,WeatherDisplay:10.37,2013-04-09 02:12:00,
2013-04-09 04:17:00,41.4,35.4,29.54,ESE,109,4.3,5.0,79,0.00,CLR,,0.00,0.0,WeatherDisplay:10.37,2013-04-09 02:17:00,
2013-04-09 04:22:00,41.3,35.3,29.54,ESE,108,3.5,4.6,79,0.00,CLR,,0.00,0.0,WeatherDisplay:10.37,2013-04-09 02:22:00,
2013-04-09 04:27:00,41.3,35.3,29.54,ESE,108,4.4,5.0,79,0.00,CLR,,0.00,0.0,WeatherDisplay:10.37,2013-04-09 02:27:00,
2013-04-09 04:32:00,41.2,35.5,29.54,ESE,109,4.2,5.0,80,0.00,CLR,,0.00,0.0,WeatherDisplay:10.37,2013-04-09 02:32:00,
2013-04-09 04:37:00,41.1,35.4,29.54,ESE,108,4.0,5.8,80,0.00,CLR,,0.00,0.0,WeatherDisplay:10.37,2013-04-09 02:37:00,
2013-04-09 04:42:00,40.9,35.2,29.54,ESE,108,3.1,5.8,80,0.00,CLR,,0.00,0.0,WeatherDisplay:10.37,2013-04-09 02:42:00,
2013-04-09 04:47:00,40.8,35.4,29.53,ESE,109,2.5,4.6,81,0.00,CLR,,0.00,0.0,WeatherDisplay:10.37,2013-04-09 02:47:00,
2013-04-09 04:52:00,40.7,35.3,29.53,ESE,108,3.9,5.8,81,0.00,CLR,,0.00,0.0,WeatherDisplay:10.37,2013-04-09 02:52:00,
2013-04-09 04:57:00,40.6,35.2,29.53,ESE,108,3.9,4.6,81,0.00,CLR,,0.00,0.0,WeatherDisplay:10.37,2013-04-09 02:57:00,
2013-04-09 05:02:00,40.4,35.0,29.53,ESE,108,4.6,4.6,81,0.00,CLR,,0.00,0.0,WeatherDisplay:10.37,2013-04-09 03:02:00,
2013-04-09 05:07:00,40.3,35.2,29.53,ESE,108,4.7,4.7,82,0.00,CLR,,0.00,0.0,WeatherDisplay:10.37,2013-04-09 03:07:00,
2013-04-09 05:12:00,40.2,35.1,29.54,ESE,108,3.2,4.6,82,0.00,CLR,,0.00,0.0,WeatherDisplay:10.37,2013-04-09 03:12:00,
2013-04-09 05:17:00,40.1,35.0,29.53,ESE,108,4.2,5.8,82,0.00,CLR,,0.00,0.0,WeatherDisplay:10.37,2013-04-09 03:17:00,
2013-04-09 05:22:00,40.0,34.9,29.53,ESE,108,4.2,5.8,82,0.00,CLR,,0.00,0.0,WeatherDisplay:10.37,2013-04-09 03:22:00,
2013-04-09 05:27:00,39.9,35.1,29.53,ESE,108,4.5,5.8,83,0.00,CLR,,0.00,0.0,WeatherDisplay:10.37,2013-04-09 03:27:00,
2013-04-09 05:32:00,39.9,35.1,29.53,ESE,108,4.3,5.0,83,0.00,CLR,,0.00,0.0,WeatherDisplay:10.37,2013-04-09 03:32:00,
2013-04-09 05:37:00,39.8,35.3,29.53,ESE,108,2.5,4.6,84,0.00,CLR,,0.00,0.0,WeatherDisplay:10.37,2013-04-09 03:37:00,
2013-04-09 05:42:00,39.7,35.2,29.53,ESE,108,1.0,4.6,84,0.00,CLR,,0.00,0.0,WeatherDisplay:10.37,2013-04-09 03:42:00,
2013-04-09 05:48:00,39.7,35.2,29.53,ESE,108,2.3,3.5,84,0.00,CLR,,0.00,0.0,WeatherDisplay:10.37,2013-04-09 03:48:00,
2013-04-09 05:53:00,39.5,35.0,29.53,ESE,108,2.5,4.6,84,0.00,CLR,,0.00,0.0,WeatherDisplay:10.37,2013-04-09 03:53:00,
2013-04-09 05:58:00,39.4,34.9,29.53,ESE,108,4.0,4.6,84,0.00,CLR,,0.00,0.0,WeatherDisplay:10.37,2013-04-09 03:58:00,
2013-04-09 06:00:00,39.3,34.8,29.53,ESE,108,3.9,4.0,84,0.00,CLR,,0.00,0.0,WeatherDisplay:10.37,2013-04-09 04:00:00,
2013-04-09 06:01:00,39.3,34.8,29.53,ESE,108,3.0,4.6,84,0.00,CLR,,0.00,0.0,WeatherDisplay:10.37,2013-04-09 04:01:00,
2013-04-09 06:02:00,39.3,35.1,29.53,ESE,109,3.7,5.8,85,0.00,CLR,,0.00,0.0,WeatherDisplay:10.37,2013-04-09 04:02:00,
2013-04-09 06:07:00,39.2,35.0,29.53,ESE,108,2.4,3.5,85,0.00,CLR,,0.00,0.0,WeatherDisplay:10.37,2013-04-09 04:07:00,
2013-04-09 06:12:00,39.1,35.0,29.53,ESE,108,3.6,5.8,85,0.00,CLR,,0.00,0.0,WeatherDisplay:10.37,2013-04-09 04:12:00,
2013-04-09 06:17:00,39.0,34.9,29.52,ESE,108,4.0,5.8,85,0.00,CLR,,0.00,0.0,WeatherDisplay:10.37,2013-04-09 04:17:00,
2013-04-09 06:22:00,39.0,35.1,29.52,ESE,108,4.8,6.9,86,0.00,CLR,,0.00,0.0,WeatherDisplay:10.37,2013-04-09 04:22:00,
2013-04-09 06:27:00,38.9,35.0,29.52,ESE,107,3.6,4.6,86,0.00,CLR,,0.00,0.0,WeatherDisplay:10.37,2013-04-09 04:27:00,
2013-04-09 06:32:00,38.8,35.2,29.52,ESE,107,3.1,4.6,87,0.00,CLR,,0.00,0.0,WeatherDisplay:10.37,2013-04-09 04:32:00,
2013-04-09 06:37:00,38.7,35.1,29.52,ESE,107,3.4,5.0,87,0.00,CLR,,0.00,0.0,WeatherDisplay:10.37,2013-04-09 04:37:00,
2013-04-09 07:31:00,37.6,34.9,29.52,East,101,6.6,8.1,90,0.00,,,0.00,21.0,WeatherDisplay:10.37,2013-04-09 05:31:00,
2013-04-09 07:36:00,37.6,34.9,29.52,East,101,4.1,7.0,90,0.00,BKN,,0.00,30.0,WeatherDisplay:10.37,2013-04-09 05:36:00,
2013-04-09 07:41:00,37.6,34.9,29.52,East,101,4.9,6.9,90,0.00,BKN,,0.00,39.0,WeatherDisplay:10.37,2013-04-09 05:41:00,
2013-04-09 07:46:00,37.6,34.9,29.52,East,101,4.3,9.2,90,0.00,BKN,,0.00,46.0,WeatherDisplay:10.37,2013-04-09 05:46:00,
2013-04-09 07:51:00,37.6,35.2,29.52,East,101,4.3,5.8,91,0.00,BKN,,0.00,58.0,WeatherDisplay:10.37,2013-04-09 05:51:00,
2013-04-09 07:57:00,37.7,35.3,29.52,East,101,5.4,6.9,91,0.00,BKN,,0.00,65.0,WeatherDisplay:10.37,2013-04-09 05:57:00,
2013-04-09 08:02:00,37.7,35.3,29.51,East,100,5.4,6.9,91,0.00,BKN,,0.00,77.0,WeatherDisplay:10.37,2013-04-09 06:02:00,
2013-04-09 08:07:00,37.8,35.4,29.51,East,100,4.8,9.2,91,0.00,BKN,,0.00,95.0,WeatherDisplay:10.37,2013-04-09 06:07:00,
2013-04-09 08:12:00,37.8,35.4,29.51,East,97,2.8,6.9,91,0.00,BKN,,0.00,111.0,WeatherDisplay:10.37,2013-04-09 06:12:00,
2013-04-09 08:17:00,37.9,35.5,29.51,East,92,3.8,4.6,91,0.00,BKN,,0.00,128.0,WeatherDisplay:10.37,2013-04-09 06:17:00,
2013-04-09 08:22:00,38.1,35.7,29.51,East,91,4.8,6.9,91,0.00,BKN,,0.00,134.0,WeatherDisplay:10.37,2013-04-09 06:22:00,
2013-04-09 08:27:00,38.2,35.8,29.51,East,84,5.1,6.9,91,0.00,BKN,,0.00,130.0,WeatherDisplay:10.37,2013-04-09 06:27:00,
2013-04-09 08:32:00,38.3,35.9,29.51,East,88,6.0,7.0,91,0.00,FEW,,0.00,116.0,WeatherDisplay:10.37,2013-04-09 06:32:00,
2013-04-09 08:37:00,38.4,35.7,29.51,East,100,5.6,9.2,90,0.00,FEW,,0.00,125.0,WeatherDisplay:10.37,2013-04-09 06:37:00,
2013-04-09 08:42:00,38.5,35.8,29.51,NE,43,4.9,4.9,90,0.00,FEW,,0.00,132.0,WeatherDisplay:10.37,2013-04-09 06:42:00,
2013-04-09 08:47:00,38.6,35.9,29.51,NE,39,5.4,7.0,90,0.00,FEW,,0.00,142.0,WeatherDisplay:10.37,2013-04-09 06:47:00,
2013-04-09 08:52:00,38.8,36.1,29.51,East,82,5.2,6.9,90,0.00,FEW,,0.00,135.0,WeatherDisplay:10.37,2013-04-09 06:52:00,
2013-04-09 08:57:00,38.9,36.2,29.51,East,95,5.7,6.9,90,0.00,FEW,,0.00,135.0,WeatherDisplay:10.37,2013-04-09 06:57:00,
2013-04-09 09:02:00,39.0,36.3,29.51,ESE,114,5.7,8.1,90,0.00,OVC,,0.00,144.0,WeatherDisplay:10.37,2013-04-09 07:02:00,
2013-04-09 09:07:00,39.1,36.4,29.51,East,100,7.0,11.0,90,0.00,OVC,,0.00,151.0,WeatherDisplay:10.37,2013-04-09 07:07:00,
2013-04-09 09:12:00,39.2,36.2,29.50,East,95,5.5,8.1,89,0.00,OVC,,0.00,155.0,WeatherDisplay:10.37,2013-04-09 07:12:00,
2013-04-09 09:17:00,39.3,36.3,29.50,East,94,5.0,6.9,89,0.00,OVC,,0.00,167.0,WeatherDisplay:10.37,2013-04-09 07:17:00,
2013-04-09 09:22:00,39.5,36.5,29.50,SE,143,5.9,9.2,89,0.00,BKN,,0.00,200.0,WeatherDisplay:10.37,2013-04-09 07:22:00,
2013-04-09 09:29:00,39.8,36.8,29.50,East,96,10.0,10.4,89,0.00,OVC,,0.00,236.0,WeatherDisplay:10.37,2013-04-09 07:29:00,
2013-04-09 09:34:00,40.0,36.7,29.50,East,92,5.7,8.1,88,0.00,BKN,,0.00,253.0,WeatherDisplay:10.37,2013-04-09 07:34:00,
2013-04-09 09:39:00,40.3,37.0,29.49,East,89,6.3,8.1,88,0.00,BKN,,0.00,237.0,WeatherDisplay:10.37,2013-04-09 07:39:00,
2013-04-09 09:44:00,40.6,37.0,29.49,East,81,4.9,6.9,87,0.00,BKN,,0.00,236.0,WeatherDisplay:10.37,2013-04-09 07:44:00,
2013-04-09 09:49:00,40.8,36.9,29.49,East,94,5.8,11.5,86,0.00,BKN,,0.00,221.0,WeatherDisplay:10.37,2013-04-09 07:49:00,
2013-04-09 09:54:00,40.9,37.0,29.49,ENE,74,4.1,8.1,86,0.00,BKN,,0.00,281.0,WeatherDisplay:10.37,2013-04-09 07:54:00,
2013-04-09 09:59:00,41.1,37.2,29.49,ESE,105,6.7,11.5,86,0.00,BKN,,0.00,262.0,WeatherDisplay:10.37,2013-04-09 07:59:00,
2013-04-09 10:04:00,41.4,37.2,29.49,East,90,6.5,9.2,85,0.00,BKN,,0.00,285.0,WeatherDisplay:10.37,2013-04-09 08:04:00,
2013-04-09 10:09:00,41.7,37.5,29.49,East,92,4.7,6.9,85,0.00,BKN,,0.00,301.0,WeatherDisplay:10.37,2013-04-09 08:09:00,
2013-04-09 10:14:00,41.9,37.4,29.49,East,88,7.1,11.5,84,0.00,BKN,,0.00,297.0,WeatherDisplay:10.37,2013-04-09 08:14:00,
2013-04-09 10:19:00,42.1,37.6,29.49,East,99,6.9,6.9,84,0.00,BKN,,0.00,320.0,WeatherDisplay:10.37,2013-04-09 08:19:00,
2013-04-09 10:24:00,42.4,37.6,29.49,ESE,102,7.5,9.2,83,0.00,BKN,,0.00,299.0,WeatherDisplay:10.37,2013-04-09 08:24:00,
2013-04-09 10:29:00,42.6,37.8,29.49,ESE,108,4.9,8.1,83,0.00,BKN,,0.00,316.0,WeatherDisplay:10.37,2013-04-09 08:29:00,
2013-04-09 10:34:00,43.1,38.3,29.49,ESE,114,6.8,11.5,83,0.00,BKN,,0.00,348.0,WeatherDisplay:10.37,2013-04-09 08:34:00,
2013-04-09 10:39:00,43.5,38.0,29.49,East,95,6.3,8.1,81,0.00,BKN,,0.00,355.0,WeatherDisplay:10.37,2013-04-09 08:39:00,
2013-04-09 10:45:00,43.9,38.1,29.49,ESE,106,7.6,11.5,80,0.00,BKN,,0.00,376.0,WeatherDisplay:10.37,2013-04-09 08:45:00,
2013-04-09 10:50:00,44.3,38.2,29.49,East,100,7.5,11.5,79,0.00,BKN,,0.00,388.0,WeatherDisplay:10.37,2013-04-09 08:50:00,
2013-04-09 10:55:00,44.5,38.0,29.49,ESE,119,9.7,11.5,78,0.00,BKN,,0.00,367.0,WeatherDisplay:10.37,2013-04-09 08:55:00,
2013-04-09 11:00:00,44.7,38.2,29.48,ESE,112,8.7,11.5,78,0.00,BKN,,0.00,380.0,WeatherDisplay:10.37,2013-04-09 09:00:00,
2013-04-09 11:05:00,44.9,38.1,29.48,ESE,113,6.6,9.2,77,0.00,BKN,,0.00,424.0,WeatherDisplay:10.37,2013-04-09 09:05:00,
2013-04-09 11:10:00,45.2,38.1,29.48,ESE,111,5.6,11.5,76,0.00,BKN,,0.00,431.0,WeatherDisplay:10.37,2013-04-09 09:10:00,
2013-04-09 11:15:00,45.4,37.9,29.48,ESE,111,11.4,13.0,75,0.00,SCT,,0.00,434.0,WeatherDisplay:10.37,2013-04-09 09:15:00,
2013-04-09 11:20:00,45.7,38.2,29.48,ESE,110,7.5,11.5,75,0.00,BKN,,0.00,413.0,WeatherDisplay:10.37,2013-04-09 09:20:00,
2013-04-09 11:25:00,46.0,38.5,29.48,ESE,106,6.1,9.2,75,0.00,BKN,,0.00,403.0,WeatherDisplay:10.37,2013-04-09 09:25:00,
2013-04-09 11:30:00,46.3,38.4,29.48,ESE,105,7.8,11.5,74,0.00,BKN,,0.00,438.0,WeatherDisplay:10.37,2013-04-09 09:30:00,
2013-04-09 11:35:00,46.6,38.4,29.48,ESE,102,6.7,11.5,73,0.00,SCT,,0.00,448.0,WeatherDisplay:10.37,2013-04-09 09:35:00,
2013-04-09 11:40:00,46.7,38.1,29.48,SE,124,6.0,9.2,72,0.00,SCT,,0.00,462.0,WeatherDisplay:10.37,2013-04-09 09:40:00,
2013-04-09 11:45:00,46.9,38.3,29.48,ESE,114,10.2,11.5,72,0.00,BKN,,0.00,399.0,WeatherDisplay:10.37,2013-04-09 09:45:00,
2013-04-09 11:50:00,47.0,38.4,29.48,ESE,114,8.1,12.7,72,0.00,BKN,,0.00,374.0,WeatherDisplay:10.37,2013-04-09 09:50:00,
2013-04-09 11:55:00,47.3,38.4,29.47,ESE,112,8.2,12.7,71,0.00,BKN,,0.00,355.0,WeatherDisplay:10.37,2013-04-09 09:55:00,
2013-04-09 12:00:00,47.4,38.4,29.47,ESE,107,7.0,9.2,71,0.00,BKN,,0.00,352.0,WeatherDisplay:10.37,2013-04-09 10:00:00,
2013-04-09 12:05:00,47.6,38.6,29.47,SE,136,7.0,11.5,71,0.00,BKN,,0.00,399.0,WeatherDisplay:10.37,2013-04-09 10:05:00,
2013-04-09 12:10:00,47.9,38.6,29.47,ESE,111,7.7,11.5,70,0.00,BKN,,0.00,378.0,WeatherDisplay:10.37,2013-04-09 10:10:00,
2013-04-09 12:15:00,48.0,38.7,29.47,ESE,119,7.5,11.5,70,0.00,BKN,,0.00,366.0,WeatherDisplay:10.37,2013-04-09 10:15:00,
2013-04-09 12:20:00,48.3,38.9,29.47,ESE,123,10.2,12.7,70,0.00,BKN,,0.00,353.0,WeatherDisplay:10.37,2013-04-09 10:20:00,
2013-04-09 12:25:00,48.5,39.1,29.47,ESE,103,8.2,11.5,70,0.00,BKN,,0.00,343.0,WeatherDisplay:10.37,2013-04-09 10:25:00,
2013-04-09 12:30:00,48.8,39.1,29.47,ESE,121,6.4,11.5,69,0.00,BKN,,0.00,283.0,WeatherDisplay:10.37,2013-04-09 10:30:00,
2013-04-09 12:35:00,49.0,39.2,29.47,ESE,114,6.8,11.5,69,0.00,BKN,,0.00,288.0,WeatherDisplay:10.37,2013-04-09 10:35:00,
2013-04-09 12:40:00,49.1,39.0,29.47,ESE,122,6.9,11.5,68,0.00,BKN,,0.00,367.0,WeatherDisplay:10.37,2013-04-09 10:40:00,
2013-04-09 12:45:00,49.4,39.3,29.47,SE,131,8.4,12.7,68,0.00,FEW,,0.00,325.0,WeatherDisplay:10.37,2013-04-09 10:45:00,
2013-04-09 12:50:00,49.5,39.4,29.47,SE,144,10.1,12.7,68,0.00,FEW,,0.00,241.0,WeatherDisplay:10.37,2013-04-09 10:50:00,
2013-04-09 12:55:00,49.5,39.7,29.46,SSE,151,8.7,12.7,69,0.00,FEW,,0.00,257.0,WeatherDisplay:10.37,2013-04-09 10:55:00,
2013-04-09 13:00:00,49.6,39.8,29.46,SSE,151,6.4,11.5,69,0.00,FEW,,0.00,260.0,WeatherDisplay:10.37,2013-04-09 11:00:00,
2013-04-09 13:05:00,49.6,39.8,29.46,SE,144,8.4,13.8,69,0.00,BKN,,0.00,272.0,WeatherDisplay:10.37,2013-04-09 11:05:00,
2013-04-09 13:10:00,49.4,40.0,29.46,SSE,162,9.0,15.0,70,0.00,BKN,,0.00,221.0,WeatherDisplay:10.37,2013-04-09 11:10:00,
2013-04-09 13:15:00,49.2,40.2,29.46,SSE,153,9.9,12.0,71,0.00,BKN,,0.00,167.0,WeatherDisplay:10.37,2013-04-09 11:15:00,
2013-04-09 13:20:00,49.1,40.4,29.46,SSE,149,6.2,10.4,72,0.00,BKN,,0.00,132.0,WeatherDisplay:10.37,2013-04-09 11:20:00,
2013-04-09 13:25:00,48.9,41.0,29.46,SSE,149,8.8,12.0,74,0.00,BKN,,0.00,158.0,WeatherDisplay:10.37,2013-04-09 11:25:00,
2013-04-09 13:30:00,48.4,41.5,29.46,SSE,147,6.8,7.0,77,0.00,BKN,,0.00,172.0,WeatherDisplay:10.37,2013-04-09 11:30:00,
2013-04-09 13:35:00,47.8,41.3,29.46,South,180,10.9,12.7,78,0.00,-RA,,0.00,167.0,WeatherDisplay:10.37,2013-04-09 11:35:00,
2013-04-09 13:40:00,47.4,41.5,29.46,SE,146,8.1,10.4,80,0.00,-RA,,0.00,142.0,WeatherDisplay:10.37,2013-04-09 11:40:00,
2013-04-09 13:45:00,47.1,41.2,29.46,SE,142,8.6,11.5,80,0.00,-RA,,0.00,81.0,WeatherDisplay:10.37,2013-04-09 11:45:00,
2013-04-09 13:50:00,46.9,41.4,29.46,SE,142,7.5,10.4,81,0.00,-RA,,0.00,53.0,WeatherDisplay:10.37,2013-04-09 11:50:00,
2013-04-09 13:55:00,46.6,41.4,29.46,SSE,151,8.4,10.4,82,0.00,-RA,,0.00,53.0,WeatherDisplay:10.37,2013-04-09 11:55:00,
2013-04-09 14:00:00,46.4,41.8,29.46,SSE,160,7.5,12.7,84,0.01,-RA,,0.01,142.0,WeatherDisplay:10.37,2013-04-09 12:00:00,
2013-04-09 14:05:00,46.4,42.1,29.46,SSE,161,4.0,6.9,85,0.01,-DZ,,0.01,174.0,WeatherDisplay:10.37,2013-04-09 12:05:00,
2013-04-09 14:10:00,46.4,42.1,29.46,SSE,153,5.3,7.0,85,0.01,-DZ,,0.01,192.0,WeatherDisplay:10.37,2013-04-09 12:10:00,
2013-04-09 14:15:00,46.4,42.1,29.46,SE,145,6.4,8.1,85,0.01,-DZ,,0.01,264.0,WeatherDisplay:10.37,2013-04-09 12:15:00,
2013-04-09 14:20:00,46.7,42.7,29.46,SE,146,6.8,7.0,86,0.01,-DZ,,0.01,181.0,WeatherDisplay:10.37,2013-04-09 12:20:00,
2013-04-09 14:26:00,46.9,42.9,29.46,SSE,156,7.0,9.2,86,0.01,-DZ,,0.01,229.0,WeatherDisplay:10.37,2013-04-09 12:26:00,
2013-04-09 14:31:00,46.9,42.6,29.46,SSE,148,7.2,9.2,85,0.01,-DZ,,0.01,262.0,WeatherDisplay:10.37,2013-04-09 12:31:00,
2013-04-09 14:36:00,47.1,42.8,29.46,SSW,196,4.7,7.0,85,0.01,-DZ,,0.01,287.0,WeatherDisplay:10.37,2013-04-09 12:36:00,
2013-04-09 14:41:00,47.1,42.8,29.46,SSE,153,5.4,8.1,85,0.01,-DZ,,0.01,279.0,WeatherDisplay:10.37,2013-04-09 12:41:00,
2013-04-09 14:46:00,47.2,42.6,29.46,SSE,152,7.1,10.0,84,0.01,-DZ,,0.01,267.0,WeatherDisplay:10.37,2013-04-09 12:46:00,
2013-04-09 14:51:00,47.1,42.5,29.46,SSE,151,5.8,8.1,84,0.01,-DZ,,0.01,262.0,WeatherDisplay:10.37,2013-04-09 12:51:00,
2013-04-09 14:57:00,47.1,42.5,29.46,SSE,158,4.4,6.9,84,0.00,-DZ,,0.01,225.0,WeatherDisplay:10.37,2013-04-09 12:57:00,
2013-04-09 15:02:00,47.3,43.0,29.46,SSE,155,4.1,6.0,85,0.00,-DZ,,0.01,209.0,WeatherDisplay:10.37,2013-04-09 13:02:00,
2013-04-09 15:07:00,47.3,43.0,29.46,SSE,153,5.0,6.9,85,0.00,-DZ,,0.01,206.0,WeatherDisplay:10.37,2013-04-09 13:07:00,
2013-04-09 15:12:00,47.3,43.0,29.46,SSE,147,6.1,9.2,85,0.00,-DZ,,0.01,213.0,WeatherDisplay:10.37,2013-04-09 13:12:00,
2013-04-09 15:17:00,47.3,43.0,29.46,SSE,150,6.0,9.0,85,0.00,-DZ,,0.01,204.0,WeatherDisplay:10.37,2013-04-09 13:17:00,
2013-04-09 15:22:00,47.1,42.8,29.46,SE,141,6.3,8.1,85,0.00,-DZ,,0.01,223.0,WeatherDisplay:10.37,2013-04-09 13:22:00,
2013-04-09 15:27:00,46.9,42.3,29.46,SE,140,6.5,9.2,84,0.00,-DZ,,0.01,230.0,WeatherDisplay:10.37,2013-04-09 13:27:00,
2013-04-09 15:33:00,47.2,42.9,29.46,SE,135,6.2,8.1,85,0.00,OVC,,0.01,234.0,WeatherDisplay:10.37,2013-04-09 13:33:00,
2013-04-09 15:38:00,47.3,43.0,29.46,SSE,148,4.4,6.9,85,0.00,OVC,,0.01,281.0,WeatherDisplay:10.37,2013-04-09 13:38:00,
2013-04-09 15:43:00,47.5,43.2,29.46,ESE,117,5.0,8.1,85,0.00,OVC,,0.01,302.0,WeatherDisplay:10.37,2013-04-09 13:43:00,
2013-04-09 15:48:00,47.4,42.8,29.46,ESE,117,3.6,5.8,84,0.00,OVC,,0.01,288.0,WeatherDisplay:10.37,2013-04-09 13:48:00,
2013-04-09 15:53:00,47.5,42.9,29.46,ESE,117,4.1,6.0,84,0.00,OVC,,0.01,285.0,WeatherDisplay:10.37,2013-04-09 13:53:00,
2013-04-09 15:58:00,47.8,43.2,29.45,ESE,117,6.5,8.1,84,0.00,OVC,,0.01,272.0,WeatherDisplay:10.37,2013-04-09 13:58:00,
2013-04-09 16:03:00,47.6,42.4,29.45,ESE,117,3.7,5.8,82,0.00,OVC,,0.01,265.0,WeatherDisplay:10.37,2013-04-09 14:03:00,
2013-04-09 16:08:00,47.7,42.5,29.45,ESE,109,5.1,6.9,82,0.00,OVC,,0.01,258.0,WeatherDisplay:10.37,2013-04-09 14:08:00,
2013-04-09 16:13:00,47.9,42.3,29.45,ESE,109,4.9,5.8,81,0.00,OVC,,0.01,246.0,WeatherDisplay:10.37,2013-04-09 14:13:00,
2013-04-09 16:19:00,47.8,41.9,29.45,East,99,5.1,5.8,80,0.00,OVC,,0.01,236.0,WeatherDisplay:10.37,2013-04-09 14:19:00,
2013-04-09 16:24:00,48.0,42.4,29.45,East,99,3.7,4.6,81,0.00,OVC,,0.01,232.0,WeatherDisplay:10.37,2013-04-09 14:24:00,
2013-04-09 16:29:00,48.3,42.7,29.45,ESE,104,4.8,8.1,81,0.00,OVC,,0.01,237.0,WeatherDisplay:10.37,2013-04-09 14:29:00,
2013-04-09 16:35:00,48.3,42.7,29.45,ESE,113,6.2,9.2,81,0.00,FEW,,0.01,209.0,WeatherDisplay:10.37,2013-04-09 14:35:00,
2013-04-09 16:40:00,48.2,42.3,29.45,SSE,157,4.5,6.9,80,0.00,FEW,,0.01,209.0,WeatherDisplay:10.37,2013-04-09 14:40:00,
2013-04-09 16:45:00,48.0,42.1,29.45,SE,137,5.4,8.0,80,0.00,FEW,,0.01,114.0,WeatherDisplay:10.37,2013-04-09 14:45:00,
2013-04-09 16:50:00,48.1,42.2,29.45,ESE,108,6.4,8.1,80,0.00,FEW,,0.01,98.0,WeatherDisplay:10.37,2013-04-09 14:50:00,
2013-04-09 16:55:00,48.0,42.1,29.45,ESE,105,6.3,8.1,80,0.00,FEW,,0.01,81.0,WeatherDisplay:10.37,2013-04-09 14:55:00,
2013-04-09 17:00:00,47.8,41.9,29.45,ENE,74,2.8,4.6,80,0.00,FEW,,0.01,77.0,WeatherDisplay:10.37,2013-04-09 15:00:00,
2013-04-09 17:05:00,47.7,41.8,29.45,ENE,74,3.9,4.6,80,0.00,BKN,,0.01,76.0,WeatherDisplay:10.37,2013-04-09 15:05:00,
2013-04-09 17:10:00,47.6,41.7,29.45,East,96,5.6,6.9,80,0.00,BKN,,0.01,100.0,WeatherDisplay:10.37,2013-04-09 15:10:00,
2013-04-09 17:15:00,47.6,41.7,29.45,East,97,4.9,6.0,80,0.00,BKN,,0.01,72.0,WeatherDisplay:10.37,2013-04-09 15:15:00,
2013-04-09 17:20:00,47.6,41.7,29.45,East,97,3.8,6.9,80,0.00,BKN,,0.01,44.0,WeatherDisplay:10.37,2013-04-09 15:20:00,
2013-04-09 17:25:00,47.7,42.1,29.45,SE,134,4.5,6.9,81,0.00,BKN,,0.01,37.0,WeatherDisplay:10.37,2013-04-09 15:25:00,
2013-04-09 17:30:00,47.7,42.1,29.45,ESE,106,5.1,8.1,81,0.00,BKN,,0.01,53.0,WeatherDisplay:10.37,2013-04-09 15:30:00,
2013-04-09 17:35:00,47.5,42.3,29.45,East,97,4.9,8.1,82,0.00, +DZ,,0.02,39.0,WeatherDisplay:10.37,2013-04-09 15:35:00,
2013-04-09 17:40:00,47.2,42.6,29.45,East,99,4.7,5.8,84,0.01, +DZ,,0.02,18.0,WeatherDisplay:10.37,2013-04-09 15:40:00,
2013-04-09 17:45:00,47.0,42.7,29.45,East,100,5.0,6.0,85,0.01, +DZ,,0.02,19.0,WeatherDisplay:10.37,2013-04-09 15:45:00,
2013-04-09 17:50:00,46.9,42.9,29.45,ESE,103,5.2,5.8,86,0.02, +DZ,,0.02,26.0,WeatherDisplay:10.37,2013-04-09 15:50:00,
2013-04-09 17:56:00,46.6,42.6,29.45,ESE,123,2.8,9.2,86,0.02, +DZ,,0.02,32.0,WeatherDisplay:10.37,2013-04-09 15:56:00,
2013-04-09 18:00:00,46.5,42.8,29.45,SE,124,5.6,6.9,87,0.02, +DZ,,0.02,26.0,WeatherDisplay:10.37,2013-04-09 16:00:00,
2013-04-09 18:05:00,46.3,42.9,29.45,SE,124,2.4,3.5,88,0.02,-RA,,0.02,23.0,WeatherDisplay:10.37,2013-04-09 16:05:00,
2013-04-09 18:11:00,46.2,42.8,29.45,SE,124,1.1,1.2,88,0.02,-RA,,0.02,26.0,WeatherDisplay:10.37,2013-04-09 16:11:00,
2013-04-09 18:16:00,46.2,43.1,29.45,SE,124,1.0,2.3,89,0.02,-RA,,0.03,25.0,WeatherDisplay:10.37,2013-04-09 16:16:00,
2013-04-09 18:21:00,46.0,42.9,29.45,SE,124,1.8,3.5,89,0.02,-RA,,0.03,23.0,WeatherDisplay:10.37,2013-04-09 16:21:00,
2013-04-09 18:26:00,46.0,42.9,29.45,SE,124,4.8,5.0,89,0.02,-RA,,0.03,19.0,WeatherDisplay:10.37,2013-04-09 16:26:00,
2013-04-09 18:31:00,46.0,42.9,29.45,South,187,3.6,4.6,89,0.02,-RA,,0.03,25.0,WeatherDisplay:10.37,2013-04-09 16:31:00,
2013-04-09 18:36:00,46.0,43.2,29.45,South,169,0.6,2.3,90,0.02,-RA,,0.03,35.0,WeatherDisplay:10.37,2013-04-09 16:36:00,
2013-04-09 18:41:00,46.0,43.2,29.45,ESE,117,4.7,8.1,90,0.02,-RA,,0.03,63.0,WeatherDisplay:10.37,2013-04-09 16:41:00,
2013-04-09 18:46:00,46.0,43.2,29.45,ESE,109,4.8,6.9,90,0.02,-RA,,0.03,79.0,WeatherDisplay:10.37,2013-04-09 16:46:00,
2013-04-09 18:52:00,46.1,43.3,29.45,East,99,6.1,8.1,90,0.01,OVC,,0.03,81.0,WeatherDisplay:10.37,2013-04-09 16:52:00,
2013-04-09 18:57:00,46.2,43.1,29.45,East,92,5.0,7.0,89,0.01,OVC,,0.03,77.0,WeatherDisplay:10.37,2013-04-09 16:57:00,
2013-04-09 19:02:00,46.2,43.1,29.45,East,95,5.2,6.0,89,0.01,OVC,,0.03,76.0,WeatherDisplay:10.37,2013-04-09 17:02:00,
2013-04-09 19:07:00,46.3,43.2,29.45,ESE,108,5.8,6.9,89,0.01,OVC,,0.03,79.0,WeatherDisplay:10.37,2013-04-09 17:07:00,
2013-04-09 19:12:00,46.3,43.2,29.45,ESE,109,6.1,8.1,89,0.01,OVC,,0.03,58.0,WeatherDisplay:10.37,2013-04-09 17:12:00,
2013-04-09 19:17:00,46.3,43.2,29.45,ESE,115,6.7,7.0,89,0.00,OVC,,0.03,51.0,WeatherDisplay:10.37,2013-04-09 17:17:00,
2013-04-09 19:22:00,46.3,43.2,29.45,ESE,111,4.4,8.1,89,0.00,OVC,,0.03,44.0,WeatherDisplay:10.37,2013-04-09 17:22:00,
2013-04-09 19:27:00,46.4,43.3,29.45,ESE,112,6.3,6.9,89,0.00,OVC,,0.03,35.0,WeatherDisplay:10.37,2013-04-09 17:27:00,
2013-04-09 19:32:00,46.4,43.3,29.45,ESE,111,5.1,6.9,89,0.00,BKN,,0.03,21.0,WeatherDisplay:10.37,2013-04-09 17:32:00,
2013-04-09 19:37:00,46.4,43.0,29.45,ESE,109,4.4,6.9,88,0.00,BKN,,0.03,12.0,WeatherDisplay:10.37,2013-04-09 17:37:00,
2013-04-09 19:42:00,46.5,43.1,29.45,ESE,109,4.6,4.6,88,0.00,BKN,,0.03,12.0,WeatherDisplay:10.37,2013-04-09 17:42:00,
2013-04-09 19:47:00,46.5,43.1,29.46,ESE,109,4.2,6.9,88,0.00,BKN,,0.03,9.0,WeatherDisplay:10.37,2013-04-09 17:47:00,
2013-04-09 19:53:00,46.5,43.1,29.46,ESE,109,4.0,5.0,88,0.00,BKN,,0.03,5.0,WeatherDisplay:10.37,2013-04-09 17:53:00,
2013-04-09 19:58:00,46.5,43.1,29.46,ESE,107,3.8,5.0,88,0.00,BKN,,0.03,5.0,WeatherDisplay:10.37,2013-04-09 17:58:00,
2013-04-09 20:03:00,46.5,43.1,29.46,ESE,107,3.5,6.0,88,0.00,OVC,,0.03,5.0,WeatherDisplay:10.37,2013-04-09 18:03:00,
2013-04-09 20:08:00,46.4,43.0,29.46,ESE,103,5.8,9.2,88,0.00,OVC,,0.03,0.0,WeatherDisplay:10.37,2013-04-09 18:08:00,
2013-04-09 20:13:00,46.4,43.0,29.46,ESE,103,3.5,4.6,88,0.00,OVC,,0.03,0.0,WeatherDisplay:10.37,2013-04-09 18:13:00,
2013-04-09 20:18:00,46.4,43.0,29.46,ESE,103,3.8,6.0,88,0.00,OVC,,0.03,0.0,WeatherDisplay:10.37,2013-04-09 18:18:00,
2013-04-09 20:23:00,46.4,43.0,29.46,ESE,103,3.9,4.6,88,0.00,OVC,,0.03,0.0,WeatherDisplay:10.37,2013-04-09 18:23:00,
2013-04-09 20:28:00,46.4,43.0,29.46,ESE,102,5.2,6.9,88,0.00,OVC,,0.03,0.0,WeatherDisplay:10.37,2013-04-09 18:28:00,
2013-04-09 20:33:00,46.3,42.9,29.46,ESE,102,3.8,4.6,88,0.00,OVC,,0.03,0.0,WeatherDisplay:10.37,2013-04-09 18:33:00,
2013-04-09 20:38:00,46.3,42.9,29.46,East,100,3.9,5.8,88,0.00,OVC,,0.03,0.0,WeatherDisplay:10.37,2013-04-09 18:38:00,
2013-04-09 20:43:00,46.3,42.9,29.46,ESE,105,6.3,9.2,88,0.00,OVC,,0.03,0.0,WeatherDisplay:10.37,2013-04-09 18:43:00,
2013-04-09 20:48:00,46.2,42.8,29.46,ESE,105,3.9,6.0,88,0.00,OVC,,0.03,0.0,WeatherDisplay:10.37,2013-04-09 18:48:00,
2013-04-09 20:53:00,46.3,42.9,29.47,ESE,105,4.4,5.8,88,0.00,OVC,,0.03,0.0,WeatherDisplay:10.37,2013-04-09 18:53:00,
2013-04-09 20:58:00,46.2,42.8,29.47,East,97,4.6,5.8,88,0.00,OVC,,0.03,0.0,WeatherDisplay:10.37,2013-04-09 18:58:00,
2013-04-09 21:03:00,46.2,42.8,29.47,East,97,3.6,6.9,88,0.00,OVC,,0.03,0.0,WeatherDisplay:10.37,2013-04-09 19:03:00,
2013-04-09 21:08:00,46.2,42.8,29.47,East,94,4.7,5.8,88,0.00,OVC,,0.03,0.0,WeatherDisplay:10.37,2013-04-09 19:08:00,
2013-04-09 21:13:00,46.2,42.8,29.47,East,94,4.1,6.0,88,0.00,OVC,,0.03,0.0,WeatherDisplay:10.37,2013-04-09 19:13:00,
2013-04-09 21:18:00,46.2,42.8,29.47,East,93,3.7,7.0,88,0.00,OVC,,0.03,0.0,WeatherDisplay:10.37,2013-04-09 19:18:00,
2013-04-09 21:23:00,46.2,43.1,29.47,East,94,5.2,5.8,89,0.00,OVC,,0.03,0.0,WeatherDisplay:10.37,2013-04-09 19:23:00,
2013-04-09 21:29:00,46.1,43.0,29.47,East,94,4.8,6.9,89,0.00,OVC,,0.03,0.0,WeatherDisplay:10.37,2013-04-09 19:29:00,
2013-04-09 21:34:00,46.1,43.0,29.47,East,95,5.1,5.8,89,0.00,OVC,,0.03,0.0,WeatherDisplay:10.37,2013-04-09 19:34:00,
2013-04-09 21:40:00,46.0,42.9,29.47,East,95,5.5,8.1,89,0.00,OVC,,0.03,0.0,WeatherDisplay:10.37,2013-04-09 19:40:00,
2013-04-09 21:45:00,46.0,42.9,29.47,East,95,4.8,4.8,89,0.00,OVC,,0.03,0.0,WeatherDisplay:10.37,2013-04-09 19:45:00,
2013-04-09 21:50:00,46.0,42.9,29.47,East,95,4.4,5.8,89,0.00,OVC,,0.03,0.0,WeatherDisplay:10.37,2013-04-09 19:50:00,
2013-04-09 21:55:00,46.0,42.9,29.47,East,96,5.2,5.8,89,0.00,OVC,,0.03,0.0,WeatherDisplay:10.37,2013-04-09 19:55:00,
2013-04-09 22:00:00,45.9,42.8,29.47,East,96,4.2,5.8,89,0.00,OVC,,0.03,0.0,WeatherDisplay:10.37,2013-04-09 20:00:00,
2013-04-09 22:05:00,45.8,42.7,29.47,East,96,4.6,5.8,89,0.00,OVC,,0.03,0.0,WeatherDisplay:10.37,2013-04-09 20:05:00,
2013-04-09 22:10:00,45.8,42.7,29.47,East,96,4.9,5.8,89,0.00,OVC,,0.03,0.0,WeatherDisplay:10.37,2013-04-09 20:10:00,
2013-04-09 22:15:00,45.8,42.7,29.47,East,96,3.9,5.8,89,0.00,OVC,,0.03,0.0,WeatherDisplay:10.37,2013-04-09 20:15:00,
2013-04-09 22:20:00,45.8,42.7,29.47,East,96,3.0,4.6,89,0.00,OVC,,0.03,0.0,WeatherDisplay:10.37,2013-04-09 20:20:00,
2013-04-09 22:25:00,45.8,43.0,29.47,East,96,3.9,4.6,90,0.00,OVC,,0.03,0.0,WeatherDisplay:10.37,2013-04-09 20:25:00,
2013-04-09 22:30:00,45.7,42.9,29.47,East,96,2.2,3.5,90,0.00,OVC,,0.03,0.0,WeatherDisplay:10.37,2013-04-09 20:30:00,
2013-04-09 22:35:00,45.7,42.9,29.47,East,96,0.6,2.3,90,0.00,OVC,,0.03,0.0,WeatherDisplay:10.37,2013-04-09 20:35:00,
2013-04-09 22:40:00,45.7,42.9,29.47,East,96,0.8,3.5,90,0.00,OVC,,0.03,0.0,WeatherDisplay:10.37,2013-04-09 20:40:00,
2013-04-09 22:45:00,45.6,42.8,29.47,East,96,3.1,4.6,90,0.00,OVC,,0.03,0.0,WeatherDisplay:10.37,2013-04-09 20:45:00,
2013-04-09 22:50:00,45.6,42.8,29.47,East,96,3.6,4.6,90,0.00,OVC,,0.03,0.0,WeatherDisplay:10.37,2013-04-09 20:50:00,
2013-04-09 22:55:00,45.6,42.8,29.47,East,96,3.4,3.5,90,0.00,OVC,,0.03,0.0,WeatherDisplay:10.37,2013-04-09 20:55:00,
2013-04-09 23:01:00,45.6,42.8,29.47,East,96,3.9,4.0,90,0.00,OVC,,0.03,0.0,WeatherDisplay:10.37,2013-04-09 21:01:00,
2013-04-09 23:06:00,45.6,42.8,29.47,East,96,2.2,5.0,90,0.00,OVC,,0.03,0.0,WeatherDisplay:10.37,2013-04-09 21:06:00,
2013-04-09 23:11:00,45.6,42.8,29.47,East,96,2.7,4.6,90,0.00,OVC,,0.03,0.0,WeatherDisplay:10.37,2013-04-09 21:11:00,
2013-04-09 23:16:00,45.6,42.8,29.47,East,96,1.9,3.5,90,0.00,OVC,,0.03,0.0,WeatherDisplay:10.37,2013-04-09 21:16:00,
2013-04-09 23:21:00,45.6,42.8,29.47,East,96,3.6,3.6,90,0.00,OVC,,0.03,0.0,WeatherDisplay:10.37,2013-04-09 21:21:00,
2013-04-09 23:26:00,45.6,42.8,29.47,East,96,0.5,4.0,90,0.00,OVC,,0.03,0.0,WeatherDisplay:10.37,2013-04-09 21:26:00,
2013-04-09 23:31:00,45.6,42.8,29.48,East,96,0.0,0.0,90,0.00,OVC,,0.03,0.0,WeatherDisplay:10.37,2013-04-09 21:31:00,
2013-04-09 23:36:00,45.6,42.8,29.47,East,96,2.1,3.5,90,0.00,BKN,,0.03,0.0,WeatherDisplay:10.37,2013-04-09 21:36:00,
2013-04-09 23:41:00,45.6,42.8,29.47,East,96,1.6,3.5,90,0.00,BKN,,0.03,0.0,WeatherDisplay:10.37,2013-04-09 21:41:00,
2013-04-09 23:47:00,45.5,42.7,29.47,East,96,0.1,1.0,90,0.00,BKN,,0.03,0.0,WeatherDisplay:10.37,2013-04-09 21:47:00,
2013-04-09 23:52:00,45.6,42.8,29.47,East,96,1.4,2.3,90,0.00,BKN,,0.03,0.0,WeatherDisplay:10.37,2013-04-09 21:52:00,
2013-04-09 23:57:00,45.5,42.7,29.48,East,96,0.0,0.0,90,0.00,BKN,,0.03,0.0,WeatherDisplay:10.37,2013-04-09 21:57:00,